Year,Month,Day,Hour,Minute,Value (Times are PST for temperature in C)
2015,03,29,00,00,6.70
2015,03,29,00,01,6.70
2015,03,29,00,02,6.70
2015,03,29,00,03,6.70
2015,03,29,00,04,6.70
2015,03,29,00,05,6.70
2015,03,29,00,06,6.70
2015,03,29,00,07,6.70
2015,03,29,00,08,6.70
2015,03,29,00,09,6.70
2015,03,29,00,10,6.70
2015,03,29,00,11,6.70
2015,03,29,00,12,6.70
2015,03,29,00,13,6.70
2015,03,29,00,14,6.80
2015,03,29,00,15,6.80
2015,03,29,00,16,6.80
2015,03,29,00,17,6.80
2015,03,29,00,18,6.80
2015,03,29,00,19,6.80
2015,03,29,00,20,6.80
2015,03,29,00,21,6.80
2015,03,29,00,22,6.80
2015,03,29,00,23,6.80
2015,03,29,00,24,6.80
2015,03,29,00,25,6.80
2015,03,29,00,26,6.80
2015,03,29,00,27,6.80
2015,03,29,00,28,6.80
2015,03,29,00,29,6.80
2015,03,29,00,30,6.80
2015,03,29,00,31,6.80
2015,03,29,00,32,6.90
2015,03,29,00,33,6.90
2015,03,29,00,34,6.90
2015,03,29,00,35,6.90
2015,03,29,00,36,6.90
2015,03,29,00,37,6.90
2015,03,29,00,38,6.90
2015,03,29,00,39,6.90
2015,03,29,00,40,6.90
2015,03,29,00,41,6.90
2015,03,29,00,42,6.90
2015,03,29,00,43,6.90
2015,03,29,00,44,6.90
2015,03,29,00,45,6.90
2015,03,29,00,46,6.90
2015,03,29,00,47,6.90
2015,03,29,00,48,6.90
2015,03,29,00,49,6.90
2015,03,29,00,50,6.90
2015,03,29,00,51,6.90
2015,03,29,00,52,6.90
2015,03,29,00,53,6.90
2015,03,29,00,54,6.90
2015,03,29,00,55,6.90
2015,03,29,00,56,6.90
2015,03,29,00,57,6.90
2015,03,29,00,58,6.90
2015,03,29,00,59,6.90
2015,03,29,01,00,6.90
2015,03,29,01,01,6.90
2015,03,29,01,02,6.90
2015,03,29,01,03,6.90
2015,03,29,01,04,6.90
2015,03,29,01,05,6.90
2015,03,29,01,06,6.90
2015,03,29,01,07,6.90
2015,03,29,01,08,6.90
2015,03,29,01,09,6.90
2015,03,29,01,10,6.90
2015,03,29,01,11,6.90
2015,03,29,01,12,6.90
2015,03,29,01,13,6.90
2015,03,29,01,14,6.90
2015,03,29,01,15,6.90
2015,03,29,01,16,6.90
2015,03,29,01,17,6.90
2015,03,29,01,18,6.90
2015,03,29,01,19,6.90
2015,03,29,01,20,7.00
2015,03,29,01,21,7.00
2015,03,29,01,22,7.00
2015,03,29,01,23,7.00
2015,03,29,01,24,7.00
2015,03,29,01,25,7.00
2015,03,29,01,26,7.00
2015,03,29,01,27,7.00
2015,03,29,01,28,7.00
2015,03,29,01,29,7.00
2015,03,29,01,30,7.00
2015,03,29,01,31,7.00
2015,03,29,01,32,7.00
2015,03,29,01,33,7.00
2015,03,29,01,34,7.00
2015,03,29,01,35,7.00
2015,03,29,01,36,7.00
2015,03,29,01,37,7.00
2015,03,29,01,38,7.00
2015,03,29,01,39,7.00
2015,03,29,01,40,7.00
2015,03,29,01,41,7.00
2015,03,29,01,42,7.00
2015,03,29,01,43,7.00
2015,03,29,01,44,7.00
2015,03,29,01,45,7.00
2015,03,29,01,46,7.00
2015,03,29,01,47,7.00
2015,03,29,01,48,7.00
2015,03,29,01,49,7.00
2015,03,29,01,50,7.00
2015,03,29,01,51,7.00
2015,03,29,01,52,7.00
2015,03,29,01,53,7.00
2015,03,29,01,54,7.00
2015,03,29,01,55,7.00
2015,03,29,01,56,7.00
2015,03,29,01,57,7.00
2015,03,29,01,58,7.00
2015,03,29,01,59,7.10
2015,03,29,02,00,7.10
2015,03,29,02,01,7.10
2015,03,29,02,02,7.10
2015,03,29,02,03,7.10
2015,03,29,02,04,7.10
2015,03,29,02,05,7.10
2015,03,29,02,06,7.10
2015,03,29,02,07,7.10
2015,03,29,02,08,7.10
2015,03,29,02,09,7.10
2015,03,29,02,10,7.10
2015,03,29,02,11,7.10
2015,03,29,02,12,7.10
2015,03,29,02,13,7.10
2015,03,29,02,14,7.10
2015,03,29,02,15,7.10
2015,03,29,02,16,7.10
2015,03,29,02,17,7.10
2015,03,29,02,18,7.00
2015,03,29,02,19,7.00
2015,03,29,02,20,7.00
2015,03,29,02,21,7.00
2015,03,29,02,22,7.00
2015,03,29,02,23,7.00
2015,03,29,02,24,7.00
2015,03,29,02,25,7.00
2015,03,29,02,26,7.00
2015,03,29,02,27,7.00
2015,03,29,02,28,7.00
2015,03,29,02,29,7.00
2015,03,29,02,30,7.00
2015,03,29,02,31,7.00
2015,03,29,02,32,7.00
2015,03,29,02,33,7.00
2015,03,29,02,34,7.00
2015,03,29,02,35,7.00
2015,03,29,02,36,7.00
2015,03,29,02,37,7.00
2015,03,29,02,38,7.00
2015,03,29,02,39,7.00
2015,03,29,02,40,7.00
2015,03,29,02,41,7.00
2015,03,29,02,42,7.00
2015,03,29,02,43,7.00
2015,03,29,02,44,7.00
2015,03,29,02,45,7.00
2015,03,29,02,46,7.00
2015,03,29,02,47,7.00
2015,03,29,02,48,7.00
2015,03,29,02,49,7.00
2015,03,29,02,50,7.00
2015,03,29,02,51,7.00
2015,03,29,02,52,7.00
2015,03,29,02,53,7.00
2015,03,29,02,54,7.00
2015,03,29,02,55,7.00
2015,03,29,02,56,7.00
2015,03,29,02,57,7.00
2015,03,29,02,58,7.00
2015,03,29,02,59,7.00
2015,03,29,03,00,7.00
2015,03,29,03,01,7.00
2015,03,29,03,02,7.00
2015,03,29,03,03,7.00
2015,03,29,03,04,7.10
2015,03,29,03,05,7.10
2015,03,29,03,06,7.10
2015,03,29,03,07,7.10
2015,03,29,03,08,7.10
2015,03,29,03,09,7.10
2015,03,29,03,10,7.10
2015,03,29,03,11,7.10
2015,03,29,03,12,7.10
2015,03,29,03,13,7.10
2015,03,29,03,14,7.10
2015,03,29,03,15,7.10
2015,03,29,03,16,7.10
2015,03,29,03,17,7.10
2015,03,29,03,18,7.20
2015,03,29,03,19,7.20
2015,03,29,03,20,7.20
2015,03,29,03,21,7.20
2015,03,29,03,22,7.20
2015,03,29,03,23,7.20
2015,03,29,03,24,7.20
2015,03,29,03,25,7.20
2015,03,29,03,26,7.10
2015,03,29,03,27,7.10
2015,03,29,03,28,7.10
2015,03,29,03,29,7.10
2015,03,29,03,30,7.10
2015,03,29,03,31,7.10
2015,03,29,03,32,7.10
2015,03,29,03,33,7.10
2015,03,29,03,34,7.10
2015,03,29,03,35,7.10
2015,03,29,03,36,7.10
2015,03,29,03,37,7.10
2015,03,29,03,38,7.10
2015,03,29,03,39,7.10
2015,03,29,03,40,7.10
2015,03,29,03,41,7.10
2015,03,29,03,42,7.20
2015,03,29,03,43,7.20
2015,03,29,03,44,7.20
2015,03,29,03,45,7.20
2015,03,29,03,46,7.30
2015,03,29,03,47,7.30
2015,03,29,03,48,7.30
2015,03,29,03,49,7.30
2015,03,29,03,50,7.30
2015,03,29,03,51,7.30
2015,03,29,03,52,7.30
2015,03,29,03,53,7.30
2015,03,29,03,54,7.30
2015,03,29,03,55,7.30
2015,03,29,03,56,7.40
2015,03,29,03,57,7.40
2015,03,29,03,58,7.40
2015,03,29,03,59,7.50
2015,03,29,04,00,7.50
2015,03,29,04,01,7.50
2015,03,29,04,02,7.50
2015,03,29,04,03,7.50
2015,03,29,04,04,7.50
2015,03,29,04,05,7.50
2015,03,29,04,06,7.60
2015,03,29,04,07,7.60
2015,03,29,04,08,7.60
2015,03,29,04,09,7.60
2015,03,29,04,10,7.60
2015,03,29,04,11,7.60
2015,03,29,04,12,7.60
2015,03,29,04,13,7.60
2015,03,29,04,14,7.60
2015,03,29,04,15,7.60
2015,03,29,04,16,7.60
2015,03,29,04,17,7.60
2015,03,29,04,18,7.60
2015,03,29,04,19,7.60
2015,03,29,04,20,7.60
2015,03,29,04,21,7.60
2015,03,29,04,22,7.50
2015,03,29,04,23,7.50
2015,03,29,04,24,7.50
2015,03,29,04,25,7.50
2015,03,29,04,26,7.50
2015,03,29,04,27,7.50
2015,03,29,04,28,7.50
2015,03,29,04,29,7.50
2015,03,29,04,30,7.50
2015,03,29,04,31,7.50
2015,03,29,04,32,7.50
2015,03,29,04,33,7.50
2015,03,29,04,34,7.60
2015,03,29,04,35,7.60
2015,03,29,04,36,7.60
2015,03,29,04,37,7.60
2015,03,29,04,38,7.60
2015,03,29,04,39,7.60
2015,03,29,04,40,7.60
2015,03,29,04,41,7.60
2015,03,29,04,42,7.60
2015,03,29,04,43,7.60
2015,03,29,04,44,7.60
2015,03,29,04,45,7.60
2015,03,29,04,46,7.60
2015,03,29,04,47,7.70
2015,03,29,04,48,7.60
2015,03,29,04,49,7.60
2015,03,29,04,50,7.60
2015,03,29,04,51,7.60
2015,03,29,04,52,7.60
2015,03,29,04,53,7.60
2015,03,29,04,54,7.60
2015,03,29,04,55,7.60
2015,03,29,04,56,7.70
2015,03,29,04,57,7.60
2015,03,29,04,58,7.70
2015,03,29,04,59,7.70
2015,03,29,05,00,7.70
2015,03,29,05,01,7.70
2015,03,29,05,02,7.70
2015,03,29,05,03,7.70
2015,03,29,05,04,7.70
2015,03,29,05,05,7.70
2015,03,29,05,06,7.80
2015,03,29,05,07,7.80
2015,03,29,05,08,7.80
2015,03,29,05,09,7.80
2015,03,29,05,10,7.90
2015,03,29,05,11,7.90
2015,03,29,05,12,7.90
2015,03,29,05,13,7.90
2015,03,29,05,14,7.90
2015,03,29,05,15,7.90
2015,03,29,05,16,7.90
2015,03,29,05,17,7.90
2015,03,29,05,18,7.90
2015,03,29,05,19,7.90
2015,03,29,05,20,7.90
2015,03,29,05,21,7.90
2015,03,29,05,22,7.90
2015,03,29,05,23,7.90
2015,03,29,05,24,7.90
2015,03,29,05,25,7.90
2015,03,29,05,26,7.90
2015,03,29,05,27,7.90
2015,03,29,05,28,7.90
2015,03,29,05,29,7.90
2015,03,29,05,30,7.90
2015,03,29,05,31,7.90
2015,03,29,05,32,7.90
2015,03,29,05,33,7.90
2015,03,29,05,34,7.90
2015,03,29,05,35,8.00
2015,03,29,05,36,8.00
2015,03,29,05,37,8.00
2015,03,29,05,38,8.00
2015,03,29,05,39,8.00
2015,03,29,05,40,8.00
2015,03,29,05,41,7.90
2015,03,29,05,42,7.90
2015,03,29,05,43,8.00
2015,03,29,05,44,8.00
2015,03,29,05,45,8.00
2015,03,29,05,46,8.00
2015,03,29,05,47,8.00
2015,03,29,05,48,8.10
2015,03,29,05,49,8.10
2015,03,29,05,50,8.10
2015,03,29,05,51,8.10
2015,03,29,05,52,8.10
2015,03,29,05,53,8.10
2015,03,29,05,54,8.20
2015,03,29,05,55,8.20
2015,03,29,05,56,8.10
2015,03,29,05,57,8.10
2015,03,29,05,58,8.10
2015,03,29,05,59,8.10
2015,03,29,06,00,8.10
2015,03,29,06,01,8.10
2015,03,29,06,02,8.10
2015,03,29,06,03,8.20
2015,03,29,06,04,8.30
2015,03,29,06,05,8.40
2015,03,29,06,06,8.50
2015,03,29,06,07,8.50
2015,03,29,06,08,8.50
2015,03,29,06,09,8.50
2015,03,29,06,10,8.50
2015,03,29,06,11,8.50
2015,03,29,06,12,8.60
2015,03,29,06,13,8.60
2015,03,29,06,14,8.60
2015,03,29,06,15,8.50
2015,03,29,06,16,8.50
2015,03,29,06,17,8.50
2015,03,29,06,18,8.50
2015,03,29,06,19,8.40
2015,03,29,06,20,8.40
2015,03,29,06,21,8.40
2015,03,29,06,22,8.40
2015,03,29,06,23,8.40
2015,03,29,06,24,8.40
2015,03,29,06,25,8.40
2015,03,29,06,26,8.40
2015,03,29,06,27,8.40
2015,03,29,06,28,8.40
2015,03,29,06,29,8.40
2015,03,29,06,30,8.40
2015,03,29,06,31,8.30
2015,03,29,06,32,8.30
2015,03,29,06,33,8.30
2015,03,29,06,34,8.30
2015,03,29,06,35,8.30
2015,03,29,06,36,8.30
2015,03,29,06,37,8.30
2015,03,29,06,38,8.30
2015,03,29,06,39,8.30
2015,03,29,06,40,8.30
2015,03,29,06,41,8.30
2015,03,29,06,42,8.30
2015,03,29,06,43,8.30
2015,03,29,06,44,8.30
2015,03,29,06,45,8.30
2015,03,29,06,46,8.30
2015,03,29,06,47,8.30
2015,03,29,06,48,8.30
2015,03,29,06,49,8.30
2015,03,29,06,50,8.30
2015,03,29,06,51,8.30
2015,03,29,06,52,8.30
2015,03,29,06,53,8.40
2015,03,29,06,54,8.50
2015,03,29,06,55,8.50
2015,03,29,06,56,8.60
2015,03,29,06,57,8.70
2015,03,29,06,58,8.70
2015,03,29,06,59,8.70
2015,03,29,07,00,8.80
2015,03,29,07,01,8.80
2015,03,29,07,02,8.80
2015,03,29,07,03,8.80
2015,03,29,07,04,8.80
2015,03,29,07,05,8.80
2015,03,29,07,06,8.80
2015,03,29,07,07,8.90
2015,03,29,07,08,8.90
2015,03,29,07,09,8.90
2015,03,29,07,10,8.90
2015,03,29,07,11,8.90
2015,03,29,07,12,8.90
2015,03,29,07,13,8.90
2015,03,29,07,14,8.90
2015,03,29,07,15,8.90
2015,03,29,07,16,8.90
2015,03,29,07,17,8.90
2015,03,29,07,18,8.90
2015,03,29,07,19,8.90
2015,03,29,07,20,8.90
2015,03,29,07,21,8.90
2015,03,29,07,22,8.90
2015,03,29,07,23,8.90
2015,03,29,07,24,8.90
2015,03,29,07,25,8.80
2015,03,29,07,26,8.80
2015,03,29,07,27,8.80
2015,03,29,07,28,8.80
2015,03,29,07,29,8.80
2015,03,29,07,30,8.80
2015,03,29,07,31,8.80
2015,03,29,07,32,8.80
2015,03,29,07,33,8.80
2015,03,29,07,34,8.80
2015,03,29,07,35,8.80
2015,03,29,07,36,8.80
2015,03,29,07,37,8.80
2015,03,29,07,38,8.70
2015,03,29,07,39,8.70
2015,03,29,07,40,8.70
2015,03,29,07,41,8.70
2015,03,29,07,42,8.70
2015,03,29,07,43,8.70
2015,03,29,07,44,8.70
2015,03,29,07,45,8.70
2015,03,29,07,46,8.70
2015,03,29,07,47,8.70
2015,03,29,07,48,8.70
2015,03,29,07,49,8.70
2015,03,29,07,50,8.70
2015,03,29,07,51,8.70
2015,03,29,07,52,8.70
2015,03,29,07,53,8.70
2015,03,29,07,54,8.70
2015,03,29,07,55,8.70
2015,03,29,07,56,8.70
2015,03,29,07,57,8.60
2015,03,29,07,58,8.60
2015,03,29,07,59,8.60
2015,03,29,08,00,8.60
2015,03,29,08,01,8.60
2015,03,29,08,02,8.60
2015,03,29,08,03,8.60
2015,03,29,08,04,8.60
2015,03,29,08,05,8.60
2015,03,29,08,06,8.60
2015,03,29,08,07,8.60
2015,03,29,08,08,8.60
2015,03,29,08,09,8.60
2015,03,29,08,10,8.60
2015,03,29,08,11,8.60
2015,03,29,08,12,8.60
2015,03,29,08,13,8.60
2015,03,29,08,14,8.60
2015,03,29,08,15,8.60
2015,03,29,08,16,8.60
2015,03,29,08,17,8.60
2015,03,29,08,18,8.60
2015,03,29,08,19,8.60
2015,03,29,08,20,8.60
2015,03,29,08,21,8.60
2015,03,29,08,22,8.60
2015,03,29,08,23,8.60
2015,03,29,08,24,8.60
2015,03,29,08,25,8.60
2015,03,29,08,26,8.60
2015,03,29,08,27,8.60
2015,03,29,08,28,8.60
2015,03,29,08,29,8.60
2015,03,29,08,30,8.60
2015,03,29,08,31,8.60
2015,03,29,08,32,8.60
2015,03,29,08,33,8.60
2015,03,29,08,34,8.60
2015,03,29,08,35,8.60
2015,03,29,08,36,8.60
2015,03,29,08,37,8.60
2015,03,29,08,38,8.60
2015,03,29,08,39,8.60
2015,03,29,08,40,8.70
2015,03,29,08,41,8.70
2015,03,29,08,42,8.70
2015,03,29,08,43,8.70
2015,03,29,08,44,8.70
2015,03,29,08,45,8.70
2015,03,29,08,46,8.70
2015,03,29,08,47,8.70
2015,03,29,08,48,8.70
2015,03,29,08,49,8.70
2015,03,29,08,50,8.70
2015,03,29,08,51,8.70
2015,03,29,08,52,8.70
2015,03,29,08,53,8.70
2015,03,29,08,54,8.70
2015,03,29,08,55,8.70
2015,03,29,08,56,8.70
2015,03,29,08,57,8.70
2015,03,29,08,58,8.80
2015,03,29,08,59,8.80
2015,03,29,09,00,8.80
2015,03,29,09,01,8.80
2015,03,29,09,02,8.80
2015,03,29,09,03,8.80
2015,03,29,09,04,8.80
2015,03,29,09,05,8.80
2015,03,29,09,06,8.80
2015,03,29,09,07,8.80
2015,03,29,09,08,8.80
2015,03,29,09,09,8.80
2015,03,29,09,10,8.80
2015,03,29,09,11,8.80
2015,03,29,09,12,8.80
2015,03,29,09,13,8.80
2015,03,29,09,14,8.80
2015,03,29,09,15,8.80
2015,03,29,09,16,8.80
2015,03,29,09,17,8.80
2015,03,29,09,18,8.90
2015,03,29,09,19,8.90
2015,03,29,09,20,8.90
2015,03,29,09,21,8.90
2015,03,29,09,22,8.90
2015,03,29,09,23,8.90
2015,03,29,09,24,8.90
2015,03,29,09,25,8.90
2015,03,29,09,26,8.90
2015,03,29,09,27,8.90
2015,03,29,09,28,8.90
2015,03,29,09,29,8.90
2015,03,29,09,30,8.90
2015,03,29,09,31,8.90
2015,03,29,09,32,8.90
2015,03,29,09,33,9.00
2015,03,29,09,34,9.00
2015,03,29,09,35,9.10
2015,03,29,09,36,9.10
2015,03,29,09,37,9.10
2015,03,29,09,38,9.10
2015,03,29,09,39,9.10
2015,03,29,09,40,9.10
2015,03,29,09,41,9.20
2015,03,29,09,42,9.20
2015,03,29,09,43,9.20
2015,03,29,09,44,9.20
2015,03,29,09,45,9.20
2015,03,29,09,46,9.20
2015,03,29,09,47,9.30
2015,03,29,09,48,9.30
2015,03,29,09,49,9.30
2015,03,29,09,50,9.30
2015,03,29,09,51,9.30
2015,03,29,09,52,9.30
2015,03,29,09,53,9.30
2015,03,29,09,54,9.30
2015,03,29,09,55,9.30
2015,03,29,09,56,9.30
2015,03,29,09,57,9.30
2015,03,29,09,58,9.30
2015,03,29,09,59,9.30
2015,03,29,10,00,9.30
2015,03,29,10,01,9.30
2015,03,29,10,02,9.30
2015,03,29,10,03,9.30
2015,03,29,10,04,9.30
2015,03,29,10,05,9.30
2015,03,29,10,06,9.30
2015,03,29,10,07,9.30
2015,03,29,10,08,9.30
2015,03,29,10,09,9.40
2015,03,29,10,10,9.40
2015,03,29,10,11,9.40
2015,03,29,10,12,9.40
2015,03,29,10,13,9.40
2015,03,29,10,14,9.40
2015,03,29,10,15,9.40
2015,03,29,10,16,9.40
2015,03,29,10,17,9.50
2015,03,29,10,18,9.50
2015,03,29,10,19,9.50
2015,03,29,10,20,9.50
2015,03,29,10,21,9.50
2015,03,29,10,22,9.50
2015,03,29,10,23,9.50
2015,03,29,10,24,9.50
2015,03,29,10,25,9.50
2015,03,29,10,26,9.60
2015,03,29,10,27,9.60
2015,03,29,10,28,9.60
2015,03,29,10,29,9.70
2015,03,29,10,30,9.70
2015,03,29,10,31,9.70
2015,03,29,10,32,9.70
2015,03,29,10,33,9.70
2015,03,29,10,34,9.70
2015,03,29,10,35,9.80
2015,03,29,10,36,9.80
2015,03,29,10,37,9.80
2015,03,29,10,38,9.80
2015,03,29,10,39,9.80
2015,03,29,10,40,9.80
2015,03,29,10,41,9.80
2015,03,29,10,42,9.80
2015,03,29,10,43,9.80
2015,03,29,10,44,9.80
2015,03,29,10,45,9.90
2015,03,29,10,46,9.90
2015,03,29,10,47,10.00
2015,03,29,10,48,10.10
2015,03,29,10,49,10.10
2015,03,29,10,50,10.10
2015,03,29,10,51,10.10
2015,03,29,10,52,10.10
2015,03,29,10,53,10.10
2015,03,29,10,54,10.10
2015,03,29,10,55,10.10
2015,03,29,10,56,10.10
2015,03,29,10,57,10.10
2015,03,29,10,58,10.20
2015,03,29,10,59,10.20
2015,03,29,11,00,10.20
2015,03,29,11,01,10.20
2015,03,29,11,02,10.20
2015,03,29,11,03,10.30
2015,03,29,11,04,10.30
2015,03,29,11,05,10.40
2015,03,29,11,06,10.50
2015,03,29,11,07,10.60
2015,03,29,11,08,10.70
2015,03,29,11,09,10.80
2015,03,29,11,10,10.90
2015,03,29,11,11,11.00
2015,03,29,11,12,11.10
2015,03,29,11,13,11.20
2015,03,29,11,14,11.20
2015,03,29,11,15,11.30
2015,03,29,11,16,11.30
2015,03,29,11,17,11.30
2015,03,29,11,18,11.30
2015,03,29,11,19,11.30
2015,03,29,11,20,11.30
2015,03,29,11,21,11.30
2015,03,29,11,22,11.30
2015,03,29,11,23,11.30
2015,03,29,11,24,11.30
2015,03,29,11,25,11.40
2015,03,29,11,26,11.40
2015,03,29,11,27,11.40
2015,03,29,11,28,11.40
2015,03,29,11,29,11.40
2015,03,29,11,30,11.40
2015,03,29,11,31,11.40
2015,03,29,11,32,11.40
2015,03,29,11,33,11.40
2015,03,29,11,34,11.40
2015,03,29,11,35,11.40
2015,03,29,11,36,11.40
2015,03,29,11,37,11.50
2015,03,29,11,38,11.50
2015,03,29,11,39,11.60
2015,03,29,11,40,11.60
2015,03,29,11,41,11.70
2015,03,29,11,42,11.80
2015,03,29,11,43,11.90
2015,03,29,11,44,12.00
2015,03,29,11,45,12.10
2015,03,29,11,46,12.20
2015,03,29,11,47,12.30
2015,03,29,11,48,12.30
2015,03,29,11,49,12.30
2015,03,29,11,50,12.30
2015,03,29,11,51,12.30
2015,03,29,11,52,12.40
2015,03,29,11,53,12.40
2015,03,29,11,54,12.50
2015,03,29,11,55,12.50
2015,03,29,11,56,12.60
2015,03,29,11,57,12.60
2015,03,29,11,58,12.60
2015,03,29,11,59,12.60
2015,03,29,12,00,12.70
2015,03,29,12,01,12.70
2015,03,29,12,02,12.70
2015,03,29,12,03,12.80
2015,03,29,12,04,12.80
2015,03,29,12,05,12.90
2015,03,29,12,06,12.90
2015,03,29,12,07,13.00
2015,03,29,12,08,12.90
2015,03,29,12,09,12.90
2015,03,29,12,10,12.90
2015,03,29,12,11,12.90
2015,03,29,12,12,12.90
2015,03,29,12,13,12.90
2015,03,29,12,14,12.90
2015,03,29,12,15,12.90
2015,03,29,12,16,12.80
2015,03,29,12,17,12.80
2015,03,29,12,18,12.80
2015,03,29,12,19,12.80
2015,03,29,12,20,12.70
2015,03,29,12,21,12.70
2015,03,29,12,22,12.80
2015,03,29,12,23,12.80
2015,03,29,12,24,12.80
2015,03,29,12,25,12.80
2015,03,29,12,26,12.80
2015,03,29,12,27,12.80
2015,03,29,12,28,12.90
2015,03,29,12,29,12.90
2015,03,29,12,30,13.00
2015,03,29,12,31,13.10
2015,03,29,12,32,13.20
2015,03,29,12,33,13.20
2015,03,29,12,34,13.20
2015,03,29,12,35,13.20
2015,03,29,12,36,13.20
2015,03,29,12,37,13.20
2015,03,29,12,38,13.20
2015,03,29,12,39,13.20
2015,03,29,12,40,13.20
2015,03,29,12,41,13.20
2015,03,29,12,42,13.20
2015,03,29,12,43,13.20
2015,03,29,12,44,13.20
2015,03,29,12,45,13.20
2015,03,29,12,46,13.20
2015,03,29,12,47,13.20
2015,03,29,12,48,13.10
2015,03,29,12,49,13.10
2015,03,29,12,50,13.10
2015,03,29,12,51,13.10
2015,03,29,12,52,13.10
2015,03,29,12,53,13.20
2015,03,29,12,54,13.20
2015,03,29,12,55,13.20
2015,03,29,12,56,13.30
2015,03,29,12,57,13.40
2015,03,29,12,58,13.50
2015,03,29,12,59,13.70
2015,03,29,13,00,13.80
2015,03,29,13,01,13.90
2015,03,29,13,02,13.90
2015,03,29,13,03,14.00
2015,03,29,13,04,14.10
2015,03,29,13,05,14.20
2015,03,29,13,06,14.30
2015,03,29,13,07,14.40
2015,03,29,13,08,14.40
2015,03,29,13,09,14.40
2015,03,29,13,10,14.50
2015,03,29,13,11,14.60
2015,03,29,13,12,14.70
2015,03,29,13,13,14.80
2015,03,29,13,14,14.80
2015,03,29,13,15,14.90
2015,03,29,13,16,14.90
2015,03,29,13,17,15.00
2015,03,29,13,18,15.10
2015,03,29,13,19,15.10
2015,03,29,13,20,15.00
2015,03,29,13,21,15.00
2015,03,29,13,22,14.90
2015,03,29,13,23,14.80
2015,03,29,13,24,14.70
2015,03,29,13,25,14.70
2015,03,29,13,26,14.70
2015,03,29,13,27,14.60
2015,03,29,13,28,14.60
2015,03,29,13,29,14.60
2015,03,29,13,30,14.60
2015,03,29,13,31,14.60
2015,03,29,13,32,14.60
2015,03,29,13,33,14.70
2015,03,29,13,34,14.70
2015,03,29,13,35,14.80
2015,03,29,13,36,14.80
2015,03,29,13,37,14.80
2015,03,29,13,38,14.80
2015,03,29,13,39,14.90
2015,03,29,13,40,14.90
2015,03,29,13,41,14.90
2015,03,29,13,42,14.90
2015,03,29,13,43,14.80
2015,03,29,13,44,14.90
2015,03,29,13,45,14.90
2015,03,29,13,46,15.00
2015,03,29,13,47,15.00
2015,03,29,13,48,15.10
2015,03,29,13,49,15.10
2015,03,29,13,50,15.20
2015,03,29,13,51,15.30
2015,03,29,13,52,15.40
2015,03,29,13,53,15.40
2015,03,29,13,54,15.40
2015,03,29,13,55,15.30
2015,03,29,13,56,15.30
2015,03,29,13,57,15.30
2015,03,29,13,58,15.20
2015,03,29,13,59,15.20
2015,03,29,14,00,15.20
2015,03,29,14,01,15.20
2015,03,29,14,02,15.20
2015,03,29,14,03,15.20
2015,03,29,14,04,15.20
2015,03,29,14,05,15.30
2015,03,29,14,06,15.30
2015,03,29,14,07,15.30
2015,03,29,14,08,15.30
2015,03,29,14,09,15.30
2015,03,29,14,10,15.30
2015,03,29,14,11,15.30
2015,03,29,14,12,15.20
2015,03,29,14,13,15.20
2015,03,29,14,14,15.10
2015,03,29,14,15,15.10
2015,03,29,14,16,15.20
2015,03,29,14,17,15.20
2015,03,29,14,18,15.30
2015,03,29,14,19,15.30
2015,03,29,14,20,15.30
2015,03,29,14,21,15.30
2015,03,29,14,22,15.30
2015,03,29,14,23,15.30
2015,03,29,14,24,15.30
2015,03,29,14,25,15.20
2015,03,29,14,26,15.20
2015,03,29,14,27,15.20
2015,03,29,14,28,15.20
2015,03,29,14,29,15.10
2015,03,29,14,30,15.10
2015,03,29,14,31,15.00
2015,03,29,14,32,15.00
2015,03,29,14,33,15.00
2015,03,29,14,34,15.00
2015,03,29,14,35,15.10
2015,03,29,14,36,15.10
2015,03,29,14,37,15.10
2015,03,29,14,38,15.10
2015,03,29,14,39,15.10
2015,03,29,14,40,15.20
2015,03,29,14,41,15.20
2015,03,29,14,42,15.20
2015,03,29,14,43,15.30
2015,03,29,14,44,15.30
2015,03,29,14,45,15.30
2015,03,29,14,46,15.40
2015,03,29,14,47,15.40
2015,03,29,14,48,15.40
2015,03,29,14,49,15.40
2015,03,29,14,50,15.40
2015,03,29,14,51,15.40
2015,03,29,14,52,15.40
2015,03,29,14,53,15.50
2015,03,29,14,54,15.50
2015,03,29,14,55,15.50
2015,03,29,14,56,15.50
2015,03,29,14,57,15.50
2015,03,29,14,58,15.50
2015,03,29,14,59,15.40
2015,03,29,15,00,15.40
2015,03,29,15,01,15.30
2015,03,29,15,02,15.30
2015,03,29,15,03,15.30
2015,03,29,15,04,15.30
2015,03,29,15,05,15.10
2015,03,29,15,06,15.00
2015,03,29,15,07,14.80
2015,03,29,15,08,14.70
2015,03,29,15,09,14.60
2015,03,29,15,10,14.60
2015,03,29,15,11,14.60
2015,03,29,15,12,14.60
2015,03,29,15,13,14.60
2015,03,29,15,14,14.60
2015,03,29,15,15,14.50
2015,03,29,15,16,14.40
2015,03,29,15,17,14.30
2015,03,29,15,18,14.30
2015,03,29,15,19,14.30
2015,03,29,15,20,14.30
2015,03,29,15,21,14.20
2015,03,29,15,22,14.20
2015,03,29,15,23,14.10
2015,03,29,15,24,14.10
2015,03,29,15,25,14.10
2015,03,29,15,26,14.10
2015,03,29,15,27,14.20
2015,03,29,15,28,14.10
2015,03,29,15,29,14.10
2015,03,29,15,30,14.00
2015,03,29,15,31,14.00
2015,03,29,15,32,14.00
2015,03,29,15,33,14.00
2015,03,29,15,34,14.00
2015,03,29,15,35,13.90
2015,03,29,15,36,13.90
2015,03,29,15,37,13.90
2015,03,29,15,38,13.90
2015,03,29,15,39,13.90
2015,03,29,15,40,13.90
2015,03,29,15,41,13.90
2015,03,29,15,42,13.90
2015,03,29,15,43,13.90
2015,03,29,15,44,14.00
2015,03,29,15,45,14.00
2015,03,29,15,46,14.10
2015,03,29,15,47,14.10
2015,03,29,15,48,14.20
2015,03,29,15,49,14.20
2015,03,29,15,50,14.30
2015,03,29,15,51,14.40
2015,03,29,15,52,14.50
2015,03,29,15,53,14.60
2015,03,29,15,54,14.70
2015,03,29,15,55,14.90
2015,03,29,15,56,15.00
2015,03,29,15,57,15.10
2015,03,29,15,58,15.20
2015,03,29,15,59,15.30
2015,03,29,16,00,15.30
2015,03,29,16,01,15.30
2015,03,29,16,02,15.30
2015,03,29,16,03,15.30
2015,03,29,16,04,15.30
2015,03,29,16,05,15.30
2015,03,29,16,06,15.20
2015,03,29,16,07,15.30
2015,03,29,16,08,15.40
2015,03,29,16,09,15.40
2015,03,29,16,10,15.50
2015,03,29,16,11,15.60
2015,03,29,16,12,15.50
2015,03,29,16,13,15.50
2015,03,29,16,14,15.40
2015,03,29,16,15,15.30
2015,03,29,16,16,15.20
2015,03,29,16,17,15.20
2015,03,29,16,18,15.20
2015,03,29,16,19,15.20
2015,03,29,16,20,15.30
2015,03,29,16,21,15.30
2015,03,29,16,22,15.30
2015,03,29,16,23,15.20
2015,03,29,16,24,15.10
2015,03,29,16,25,15.00
2015,03,29,16,26,15.00
2015,03,29,16,27,14.90
2015,03,29,16,28,14.90
2015,03,29,16,29,14.90
2015,03,29,16,30,14.90
2015,03,29,16,31,14.80
2015,03,29,16,32,14.80
2015,03,29,16,33,14.80
2015,03,29,16,34,14.90
2015,03,29,16,35,14.90
2015,03,29,16,36,14.90
2015,03,29,16,37,14.90
2015,03,29,16,38,14.90
2015,03,29,16,39,14.90
2015,03,29,16,40,14.90
2015,03,29,16,41,15.00
2015,03,29,16,42,15.00
2015,03,29,16,43,15.10
2015,03,29,16,44,15.10
2015,03,29,16,45,15.20
2015,03,29,16,46,15.20
2015,03,29,16,47,15.30
2015,03,29,16,48,15.30
2015,03,29,16,49,15.20
2015,03,29,16,50,15.20
2015,03,29,16,51,15.10
2015,03,29,16,52,15.10
2015,03,29,16,53,15.00
2015,03,29,16,54,15.00
2015,03,29,16,55,14.90
2015,03,29,16,56,15.00
2015,03,29,16,57,15.00
2015,03,29,16,58,15.00
2015,03,29,16,59,15.00
2015,03,29,17,00,15.00
2015,03,29,17,01,14.90
2015,03,29,17,02,14.90
2015,03,29,17,03,14.90
2015,03,29,17,04,14.90
2015,03,29,17,05,15.00
2015,03,29,17,06,15.00
2015,03,29,17,07,15.00
2015,03,29,17,08,15.00
2015,03,29,17,09,15.00
2015,03,29,17,10,14.90
2015,03,29,17,11,14.90
2015,03,29,17,12,14.90
2015,03,29,17,13,14.90
2015,03,29,17,14,14.90
2015,03,29,17,15,14.90
2015,03,29,17,16,14.90
2015,03,29,17,17,14.90
2015,03,29,17,18,14.80
2015,03,29,17,19,14.80
2015,03,29,17,20,14.80
2015,03,29,17,21,14.80
2015,03,29,17,22,14.80
2015,03,29,17,23,14.80
2015,03,29,17,24,14.80
2015,03,29,17,25,14.80
2015,03,29,17,26,14.80
2015,03,29,17,27,14.80
2015,03,29,17,28,14.80
2015,03,29,17,29,14.80
2015,03,29,17,30,14.80
2015,03,29,17,31,14.80
2015,03,29,17,32,14.80
2015,03,29,17,33,14.80
2015,03,29,17,34,14.80
2015,03,29,17,35,14.80
2015,03,29,17,36,14.70
2015,03,29,17,37,14.70
2015,03,29,17,38,14.60
2015,03,29,17,39,14.60
2015,03,29,17,40,14.50
2015,03,29,17,41,14.50
2015,03,29,17,42,14.50
2015,03,29,17,43,14.40
2015,03,29,17,44,14.30
2015,03,29,17,45,14.30
2015,03,29,17,46,14.20
2015,03,29,17,47,14.20